Delta 168 - Orbit

View from above orbital plane
View from above orbital plane
View from above satellite
View from above satellite

Ground track
Ground track

The orbit data is extracted from the following two-line orbital elements,

1 14051U 83041B   13138.53165571  .00004212  00000-0  41487-3 0  2568
2 14051 025.3298 172.9509 1147745 083.9211 063.3658 12.96999947383738
Epoch (UTC): 18 May 2013 12:45:35
Eccentricity: 0.1147745
inclination: 25.3298°
perigee height: 395 km
apogee height: 2152 km
right ascension of ascending node: 172.9509°
argument of perigee: 83.9211°
revolutions per day: 12.96999947
mean anomaly at epoch: 63.3658°
orbit number at epoch: 38373

The dashed part of the orbit path shows where the satellite is in the earth's shadow,  

Developed and maintained by Chris Peat, Heavens-Above GmbH. Please read the updated FAQ before sending e-mail. Imprint. DLR